EW4305 Weather Reports


time (UTC)temp
F
wind
direction
speed
knots
gust
knots
rain 1hr
in
rain 24hr
in
rain mn
in
humidity
%
barometer
mb
20260505065500 45 351 0.0 6.1 0.06 0.14 0.10 87 1003.3
20260505064000 46 2 2.6 8.7 0.05 0.13 0.09 85 1003.0
20260505062500 48 351 1.7 6.1 0.03 0.11 0.07 82 1002.3
20260505061000 50 89 0.0 0.0 0.01 0.05 0.01 83 1001.5
20260505054000 50 89 0.0 0.0 0.00 0.04 0.04 80 1000.7
20260505053000 50 89 0.0 0.0 0.00 0.04 0.04 80 1000.4
20260505052500 50 89 0.0 0.0 0.00 0.04 0.04 80 1000.4
20260505052000 49 89 0.9 2.6 0.00 0.04 0.04 81 1000.3
20260505051500 49 78 0.0 0.0 0.00 0.04 0.04 82 1000.4
20260505051000 50 78 0.0 0.0 0.00 0.04 0.04 82 1000.4
20260505041500 50 78 0.0 0.0 0.00 0.04 0.04 82 1000.6
20260505031501 51 0 0.0 0.0 0.00 0.04 0.04 84 1001.1
20260505030501 52 0 0.0 0.0 0.00 0.04 0.04 85 1001.0
20260505030000 52 0 0.0 0.0 0.00 0.04 0.04 84 1002.3
20260505025001 52 0 0.0 0.0 0.00 0.04 0.04 82 1001.9
20260505024001 52 0 0.0 0.0 0.00 0.04 0.04 82 1001.9
20260505023500 52 0 0.0 0.0 0.00 0.04 0.04 81 1001.8
20260505021500 53 0 0.0 0.0 0.01 0.04 0.04 82 1001.5
20260505015500 53 0 0.0 0.0 0.02 0.04 0.04 81 1002.8
20260505014001 54 0 0.0 0.0 0.02 0.04 0.04 79 1002.5
20260505012500 55 0 0.0 0.0 0.02 0.04 0.04 77 1002.6
20260505011000 55 0 0.0 0.0 0.01 0.03 0.03 74 1002.0
20260505005500 56 0 0.0 0.0 0.01 0.02 0.02 67 1003.0
20260505005001 57 2 1.7 5.2 0.02 0.02 0.02 63 1002.7
20260505004001 57 51 0.0 2.6 0.02 0.02 0.02 63 1002.6
20260505003500 57 87 0.0 0.9 0.02 0.02 0.02 65 1002.6
20260505002500 58 87 0.0 0.0 0.02 0.02 0.02 66 1002.5
20260505000501 59 87 0.0 5.2 0.02 0.02 0.02 48 1002.1
20260504235001 63 281 0.0 2.6 0.00 0.00 0.00 53 1002.2
20260504233501 64 311 0.0 2.6 0.00 0.00 0.00 35 1001.4
20260504232001 65 333 0.0 0.9 0.00 0.00 0.00 35 1001.0
20260504231500 65 340 0.0 2.6 0.00 0.00 0.00 35 1000.8
20260504224501 66 346 0.9 4.3 0.00 0.00 0.00 33 999.9
20260504223501 66 3 1.7 6.1 0.00 0.00 0.00 33 1000.0
20260504223001 66 358 2.6 6.1 0.00 0.00 0.00 34 1000.0
20260504222001 66 346 0.0 4.3 0.00 0.00 0.00 34 999.9
20260504221001 66 334 1.7 5.2 0.00 0.00 0.00 34 1000.0
20260504212001 66 332 1.7 10.4 0.00 0.00 0.00 36 1000.7
20260504211501 66 335 2.6 15.6 0.00 0.00 0.00 35 1000.7
20260504211001 67 349 3.5 10.4 0.00 0.00 0.00 33 1000.7
20260504210501 67 359 2.6 10.4 0.00 0.00 0.00 32 1000.6
20260504210001 67 354 4.3 10.4 0.00 0.00 0.00 32 1000.1
20260504205001 65 3 3.5 7.8 0.00 0.00 0.00 33 1000.3
20260504204501 65 358 4.3 10.4 0.00 0.00 0.00 33 1000.3
20260504204001 65 3 4.3 10.4 0.00 0.00 0.00 32 1000.4
20260504203501 65 3 5.2 11.3 0.00 0.00 0.00 33 1000.4
20260504201501 66 2 7.8 13.9 0.00 0.00 0.00 31 999.9
20260504201001 66 349 6.1 13.9 0.00 0.00 0.00 31 1000.0
20260504200501 66 341 4.3 14.8 0.00 0.00 0.00 30 1000.4
20260504193001 69 1 4.3 13.0 0.00 0.00 0.00 27 998.8
20260504192500 69 3 4.3 8.7 0.00 0.00 0.00 26 998.6
20260504190501 72 0 0.0 2.6 0.00 0.00 0.00 21 997.9
20260504190001 72 309 0.0 2.6 0.00 0.00 0.00 24 997.2
20260504185002 72 351 1.7 6.1 0.00 0.00 0.00 23 997.1
20260504184001 73 5 0.0 6.1 0.00 0.00 0.00 24 996.9
20260504180501 74 322 0.0 2.6 0.00 0.00 0.00 23 996.7
20260504175001 74 279 0.9 4.3 0.00 0.00 0.00 24 996.3
20260504174501 74 197 0.9 2.6 0.00 0.00 0.00 23 996.3
20260504174001 74 180 0.9 10.4 0.00 0.00 0.00 22 996.2
20260504173501 74 214 0.9 2.6 0.00 0.00 0.00 22 996.3
20260504173001 74 291 0.9 2.6 0.00 0.00 0.00 23 996.4
20260504171502 73 254 0.0 1.7 0.00 0.00 0.00 21 996.4
20260504170501 73 312 0.0 2.6 0.00 0.00 0.00 22 996.6
20260504141002 50 30 0.0 0.0 0.00 0.00 0.00 52 1000.3
20260504140501 50 30 0.0 0.0 0.00 0.00 0.00 53 1000.2
20260504110502 42 30 0.0 0.0 0.00 0.00 0.00 60 1000.3